Weather History for K79J - January, 2013

Change the Weather History Date:

Tuesday, January 29, 2013

  Actual Average (KCEW) Record (KCEW)
Temperature  
Mean Temperature 69 °F -  
Max Temperature 79 °F 60 °F 78 °F (1950)
Min Temperature 59 °F 38 °F 18 °F (2014)
Cooling Degree Days 4    
Growing Degree Days 19 (Base 50)    
Moisture  
Dew Point 60 °F    
Average Humidity 77    
Maximum Humidity 88    
Minimum Humidity 56    
Precipitation  
Precipitation 0.02 in - - ()
Sea Level Pressure  
Sea Level Pressure 30.10 in    
Wind  
Wind Speed 5 mph (SSE)    
Max Wind Speed 14 mph    
Max Gust Speed 25 mph    
Visibility 5 miles    
Events Fog , Rain    
Averages and records for this station are not official NWS values.
T = Trace of Precipitation, MM = Missing Value Source: NWS Daily Summary

Daily Weather History Graph

Daily Weather History Graph

Search for Another Location

Airport or City:

Trip Planner

Search our weather history database for the weather conditions in past years. The results will help you decide how hot, cold, wet, or windy it might be!

Date:

Astronomy

Jan. 29, 2013 Rise Set
Actual Time 6:39 AM CST 5:18 PM CST
Civil Twilight 6:14 AM CST 5:43 PM CST
Nautical Twilight 5:44 AM CST 6:12 PM CST
Astronomical Twilight 5:16 AM CST 6:41 PM CST
Moon 7:58 PM CST (1/29) 7:49 AM CST (1/29)
Length of Visible Light 11h 29m
Length of Day
10h 38m
Waning Gibbous, 93% of the Moon is Illuminated
Jan 29
Waning Gibbous
Feb 3
Last Quarter
Feb 10
New
Feb 17
First Quarter
Feb 25
Full

Hourly Weather History & Observations

Time (CST) Temp. Dew Point Humidity Pressure Visibility Wind Dir Wind Speed Gust Speed Precip Events Conditions
12:14 AM 60.8 °F 55.4 °F 82% 30.19 in 0.8 mi SSE 3.5 mph - 0.00 in Rain Light Rain
12:20 AM 60.8 °F 55.4 °F 82% 30.19 in 1.2 mi SSE 3.5 mph - 0.00 in Rain Light Rain
12:29 AM 60.8 °F 55.4 °F 82% 30.19 in 1.5 mi SSE 3.5 mph - 0.00 in Rain Light Rain
12:33 AM 60.8 °F 55.4 °F 82% 30.19 in 1.0 mi SSE 3.5 mph - 0.00 in Rain Light Rain
12:36 AM 59.0 °F 55.4 °F 88% 30.19 in 0.8 mi SSE 3.5 mph - 0.00 in Rain Light Rain
12:46 AM 60.8 °F 55.4 °F 82% 30.19 in 1.2 mi Calm Calm - 0.00 in Rain Light Rain
12:56 AM 60.1 °F 55.9 °F 86% 30.18 in 0.5 mi Calm Calm - 0.00 in Fog , Rain Light Rain
1:05 AM 60.8 °F 55.4 °F 82% 30.18 in 0.2 mi Calm Calm - 0.00 in Fog , Rain Light Rain
1:24 AM 59.0 °F 55.4 °F 88% 30.18 in 1.0 mi SE 3.5 mph - 0.00 in Rain Light Rain
1:26 AM 59.0 °F 55.4 °F 88% 30.18 in 1.5 mi SE 3.5 mph - 0.00 in Rain Light Rain
1:32 AM 59.0 °F 55.4 °F 88% 30.18 in 3.0 mi SE 3.5 mph - 0.00 in Rain Light Rain
1:56 AM 60.1 °F 55.9 °F 86% 30.17 in 2.5 mi SE 3.5 mph - 0.00 in Rain Light Rain
2:03 AM 60.8 °F 55.4 °F 82% 30.18 in 3.0 mi ESE 3.5 mph - 0.00 in Rain Light Rain
2:16 AM 60.8 °F 57.2 °F 88% 30.18 in 2.5 mi SE 3.5 mph - 0.00 in   Overcast
2:56 AM 61.0 °F 57.0 °F 87% 30.17 in 2.0 mi SE 3.5 mph - 0.00 in   Overcast
3:11 AM 62.6 °F 57.2 °F 82% 30.17 in 2.0 mi SE 3.5 mph - N/A   Overcast
3:25 AM 60.8 °F 57.2 °F 88% 30.16 in 1.8 mi SE 3.5 mph - N/A   Overcast
3:34 AM 60.8 °F 57.2 °F 88% 30.16 in 1.5 mi ESE 3.5 mph - N/A   Overcast
3:54 AM 62.6 °F 57.2 °F 82% 30.16 in 1.8 mi SE 4.6 mph - N/A   Haze
3:56 AM 62.1 °F 57.0 °F 84% 30.15 in 1.8 mi SE 3.5 mph - N/A   Haze
4:02 AM 62.6 °F 57.2 °F 82% 30.16 in 2.0 mi SE 4.6 mph - N/A   Overcast
4:56 AM 63.0 °F 57.9 °F 84% 30.15 in 2.5 mi SE 4.6 mph - N/A   Haze
5:28 AM 62.6 °F 57.2 °F 82% 30.16 in 3.0 mi SE 6.9 mph - N/A   Haze
5:35 AM 62.6 °F 57.2 °F 82% 30.16 in 3.0 mi SE 6.9 mph - N/A   Haze
5:56 AM 63.0 °F 59.0 °F 87% 30.15 in 3.0 mi SE 4.6 mph - N/A   Overcast
6:46 AM 62.6 °F 57.2 °F 82% 30.15 in 2.0 mi SSE 4.6 mph - N/A   Haze
6:56 AM 63.0 °F 57.9 °F 84% 30.14 in 2.5 mi SE 6.9 mph - N/A   Haze
7:22 AM 64.4 °F 59.0 °F 83% 30.15 in 3.0 mi SSE 6.9 mph - N/A   Haze
7:56 AM 64.0 °F 59.0 °F 84% 30.14 in 3.0 mi SSE 6.9 mph - N/A   Haze
8:56 AM 70.0 °F 59.0 °F 68% 30.14 in 6.0 mi South 9.2 mph - N/A   Haze
9:56 AM 75.0 °F 61.0 °F 62% 30.13 in 9.0 mi SSW 13.8 mph 17.3 mph N/A   Scattered Clouds
10:03 AM 75.2 °F 62.6 °F 65% 30.13 in 9.0 mi Variable 4.6 mph 17.3 mph N/A   Mostly Cloudy
10:56 AM 77.0 °F 63.0 °F 62% 30.11 in 10.0 mi South 10.4 mph - N/A   Overcast
11:45 AM 77.0 °F 62.6 °F 61% 30.10 in 10.0 mi SSW 8.1 mph 17.3 mph N/A   Overcast
11:56 AM 77.0 °F 63.0 °F 62% 30.08 in 10.0 mi SW 8.1 mph 20.7 mph N/A   Overcast
12:34 PM 78.8 °F 62.6 °F 57% 30.06 in 10.0 mi South 10.4 mph 25.3 mph N/A   Overcast
12:56 PM 79.0 °F 62.1 °F 56% 30.04 in 10.0 mi SSW 8.1 mph 24.2 mph N/A   Mostly Cloudy
1:22 PM 78.8 °F 62.6 °F 57% 30.04 in 10.0 mi SSW 8.1 mph - N/A   Overcast
1:56 PM 79.0 °F 63.0 °F 58% 30.01 in 10.0 mi SW 9.2 mph 17.3 mph N/A   Mostly Cloudy
2:18 PM 78.8 °F 62.6 °F 57% 30.01 in 8.0 mi SSW 8.1 mph 23.0 mph N/A   Mostly Cloudy
2:56 PM 78.1 °F 63.0 °F 60% 29.99 in 10.0 mi SW 8.1 mph 25.3 mph N/A   Mostly Cloudy
3:56 PM 77.0 °F 63.0 °F 62% 29.99 in 10.0 mi SW 9.2 mph 20.7 mph N/A   Overcast
4:56 PM 75.0 °F 64.0 °F 69% 30.00 in 10.0 mi SW 9.2 mph - N/A   Overcast
5:37 PM 73.4 °F 64.4 °F 73% 30.00 in 10.0 mi South 4.6 mph - N/A   Overcast
5:56 PM 73.9 °F 64.0 °F 71% 29.99 in 10.0 mi South 6.9 mph - N/A   Overcast
6:56 PM 73.0 °F 64.0 °F 73% 29.98 in 10.0 mi South 6.9 mph - N/A   Overcast
7:04 PM 73.4 °F 64.4 °F 73% 29.99 in 10.0 mi SSW 5.8 mph 17.3 mph N/A   Overcast
7:56 PM 73.0 °F 64.9 °F 76% 29.97 in 10.0 mi South 5.8 mph 21.9 mph 0.00 in   Overcast
8:56 PM 72.0 °F 64.9 °F 78% 29.96 in 8.0 mi South 8.1 mph 16.1 mph 0.02 in   Overcast
9:56 PM 72.0 °F 66.0 °F 81% 29.96 in 6.0 mi Variable 5.8 mph - N/A   Haze
10:56 PM 73.0 °F 66.0 °F 79% 29.94 in 8.0 mi South 8.1 mph 17.3 mph N/A   Overcast
11:56 PM 73.0 °F 66.9 °F 81% 29.91 in 6.0 mi SSW 6.9 mph 17.3 mph 0.00 in Rain Light Rain